Weather Roundup
Issued by NWS Chicago, IL

Home | Current Version | Previous Version | Text Only | Print | Product List | Glossary Off
Versions: 1 2 3 4 5 6 7 8 9 10 11 12 13 14 15 16 17 18 19 20 21 22 23 24 25 26 27 28 29 30 31 32 33 34 35 36 37 38 39 40 41 42 43 44 45 46 47 48 49 50

000
NZUS59 KLOT 232104
HRRLOT

CHICAGO AREA WEATHER ROUNDUP
NATIONAL WEATHER SERVICE CHICAGO/ROMEOVILLE IL
400 PM CDT WED AUG 23 2017

NOTE: "FAIR" INDICATES FEW OR NO CLOUDS BELOW 12,000 FEET WITH NO
SIGNIFICANT WEATHER AND/OR OBSTRUCTIONS TO VISIBILITY.

* THESE STATIONS ARE NOT UNDER NWS QUALITY CONTROL. THEY ALSO MAY NOT
  REPORT WEATHER SUCH AS PRECIPITATION OR FOG.

ILZ005-006-012>014-019>023-232200-
NORTHEAST ILLINOIS

CITY           SKY/WX    TMP DP  RH WIND       PRES   REMARKS
OHARE          PTSUNNY   78  48  34 NW13      30.01F
MIDWAY         PTSUNNY   76  49  38 NW12      30.01S
AURORA         PTSUNNY   73  54  51 NW9       30.03F
LANSING*       PTSUNNY   74  59  58 E8        30.01F
JOLIET*        PTSUNNY   77  54  43 NW8       30.02F
WAUKEGAN       PTSUNNY   74  51  44 VRB6      30.01F
DUPAGE AIRPORT MOSUNNY   75  53  46 NW14G21   30.02F
WHEELING       PTSUNNY   77  52  41 N13       30.02F
MORRIS*        PTSUNNY   76  54  47 NW5       30.01F
LEWIS AIRPORT* MOSUNNY   75  54  47 NW12      30.02F
NORTHERLY ISL    N/A     70  57  63 NE9         N/A
$$

WIZ051-052-058>065-066-070>072-232200-
SOUTHEAST WISCONSIN

CITY           SKY/WX    TMP DP  RH WIND       PRES   REMARKS
MILWAUKEE      PTSUNNY   70  56  61 E7        30.01F
KENOSHA*       CLOUDY    74  50  42 N7G16     30.02F
RACINE*        MOSUNNY   70  56  61 SE7       30.04S
WAUKESHA       MOSUNNY   72  48  43 NW12G17   30.03F
$$

INZ001>003-010>013-019-020-232200-
NORTHWEST INDIANA

CITY           SKY/WX    TMP DP  RH WIND       PRES   REMARKS
GARY*          MOSUNNY   72  55  56 NE12      30.03
MICHIGAN CITY* NOT AVBL
RENSSELAER*    NOT AVBL
VALPARAISO     SUNNY     74  56  53 NE8       30.02F
$$

LMZ740>746-232200-
SOUTHERN LAKE MICHIGAN

STATION/POSITION TIME  SKY/WX   TEMP WIND        PRES    VSBY
                                AIR  DIR/SP/G
                 (UTC)          (F)  (DEG/KT/KT) (MB)    (MI)
HARRISON CRIB    2040            69   70/ 12/ 13   N/A
BURNHAM HARBOR   NOT AVBL
CALUMET HARBOR   2030            70   50/  7/ 10 1016.0F
BURNS HARBOR     2040            71   40/  9/ 12 1016.9F
MICHIGAN CITY    2040            68   30/ 12/ 14   N/A
$$

ABBREVIATIONS USED IN REMARKS
   TC - TEMPERATURE IN CELSIUS
  WCI - WIND CHILL INDEX
   HX - HEAT INDEX
  VSB - VISIBILITY
$$




USA.gov is the U.S. government's official web portal to all federal, state and local government web resources and services.